ONEWEB-0021, 45134

Orbit data source: Space-Track

ONEWEB-0021, 45134 is a payload satellite owned by One Web (UK) in LEO that was launched on Thu, 06 Feb 2020 UTC via a SOYUZ-2-1B launch vehicle from the Tyuratam Missile And Space Complex (TTMTR). Payload-class satellites include a variety of spacecraft equipped with specific instruments for various scientific and technological missions. These include communications satellites like Starlink; space stations such as the ISS; scientific satellites like the Hubble; Earth observation satellites from companies like Planet Labs, Umbra, and HawkEye 360; GPS; miniature CubeSats for education and research; and military/defense satellites.

Loading next visibility...
Identifier
45134, 2020-008D
Orbit
LEO
Last TLE update
12 hours ago
Origin
Manufacturer
One Web
Mission
Operational Commercial Communications
Bus & Motor
ARROW, Unknown motor
Mass
148 kg wet, ~140 kg dry
Launch date (UTC)
2020-02-06 (5 years ago)
Launch vehicle
SOYUZ-2-1B
Launch site
Tyuratam Missile And Space Complex (TTMTR)
Object type
Payload
Rocket body
Debris
Shape & HBR
Trap Box + 2 Pan, 5 m
Radar Cross Section
2.957 m², Large (>1 m²)

Expand to show TLE details & history

TLE from 12 hours ago
0 ONEWEB-0021
1 45134U 20008D   25189.83419283  .00000566  00000-0  15844-2 0  9991
2 45134  87.8830 104.7692 0002013  81.5555 278.5801 13.10372096263685
Epoch: 2025-07-08T20:01Z
TLE epoch observation values (Epoch: 2025-07-08T20:01:14.26Z)
Latitude
0.00003°
Longitude
-122.56371°
Altitude
1,224.38 km
Speed
7.242 km/s
True Right ascension
06h 59m 04s
True Declination
0° 00' 00"
Sunlit
Object was in daylight at epoch
Visualization orbit readout
Latitude
-85.87017°
Longitude
-153.28911°
Altitude
1,251.954 km
Speed
7.228 km/s
Apparent Right ascension
08h 14m 29s
Apparent Declination
-65° 48' 31"
Sunlit
Object is in daylight
Visualization observer readout
Local Sidereal Time
20:34:08
Azimuth
175.416° S
Elevation
-63.956°
Doppler factor
1
Orbital elements
Apogee altitude
1,220.369 km
Perigee altitude
1,217.31 km
Semi-major axis
7,596.977 km
Eccentricity
0.0002
Inclination
87.883°
RAAN
104.7692°
Arg. of periapsis
81.5555°
True anomaly
Unknown
Mean anomaly
278.5801°
Eccentric anomaly
Unknown
Mean motion
3.2778 °/min
Orbital period
109.83 mins
BSTAR
0.0015844
Loading maneuver chart data...
Loading SW <> Apogee altitude chart data...
Loading historical data...
Loading historical data...
Loading historical data...
Loading historical data...
Loading historical data...
Loading historical data...
Loading historical data...

ONEWEB-0021 Visibility forecast

Observer location: undefined°, undefined°

Span
Click to sort rows by Start time (UTC) header in descending order
Start Az.
Max El. time (UTC)
Max El. Az.
Max El.
End time (UTC)
End Az.
13 mins2025-07-09 18:06:29.207Z152.667° SSE2025-07-09 18:13:29.207Z71.907° E36.257°2025-07-09 18:19:29.207Z13.394° NNE
11 mins2025-07-09 19:58:29.207Z230.038° WSW2025-07-09 20:03:29.207Z285.184° WNW26.875°2025-07-09 20:09:29.207Z340.438° N
12 mins2025-07-10 05:37:29.207Z20.347° NNE2025-07-10 05:42:29.207Z73.649° E31.74°2025-07-10 05:49:29.207Z147.687° SSE
11 mins2025-07-10 07:27:29.207Z338.417° N2025-07-10 07:32:29.207Z285.437° WNW31.446°2025-07-10 07:38:29.207Z218.993° SW
|